Zurück zum Katalog

STARLINK-32858

AktivKommunikationVLEO
NORAD 62962·PAYLOAD·🇺🇸 United States

Gestartet Feb 11, 2025 von Vandenberg Space Force Base

Loading…

Nächste Überflüge (nächste 24 Stunden)

TLE

AktuellSource: CelesTrak SupGP

Epoche: Sep 15, 2026, 03:27 UTC

1 62962C 25029Q   26258.14423611 -.00023732  00000+0 -70146-3 0  2585
2 62962  53.1585  70.8916 0001154  87.7211   1.7884 15.34390098    13

Verfolge STARLINK-32858 in Echtzeit mit AllMySat

Download on the App Store